Year,Month,Day,Hour,Minute,Value (Times are PST for windgust in km/hr)
2016,10,07,00,00,41.80
2016,10,07,00,01,53.10
2016,10,07,00,02,48.30
2016,10,07,00,03,35.40
2016,10,07,00,04,43.50
2016,10,07,00,05,49.90
2016,10,07,00,06,49.90
2016,10,07,00,07,35.40
2016,10,07,00,08,51.50
2016,10,07,00,09,46.70
2016,10,07,00,10,43.50
2016,10,07,00,11,51.50
2016,10,07,00,12,53.10
2016,10,07,00,13,46.70
2016,10,07,00,14,53.10
2016,10,07,00,15,43.50
2016,10,07,00,16,45.10
2016,10,07,00,17,38.60
2016,10,07,00,18,51.50
2016,10,07,00,19,41.80
2016,10,07,00,20,45.10
2016,10,07,00,21,40.20
2016,10,07,00,22,46.70
2016,10,07,00,23,45.10
2016,10,07,00,24,40.20
2016,10,07,00,25,33.80
2016,10,07,00,26,48.30
2016,10,07,00,27,59.50
2016,10,07,00,28,33.80
2016,10,07,00,29,45.10
2016,10,07,00,30,56.30
2016,10,07,00,31,49.90
2016,10,07,00,32,48.30
2016,10,07,00,33,43.50
2016,10,07,00,34,46.70
2016,10,07,00,35,33.80
2016,10,07,00,36,49.90
2016,10,07,00,37,41.80
2016,10,07,00,38,37.00
2016,10,07,00,39,29.00
2016,10,07,00,40,33.80
2016,10,07,00,41,40.20
2016,10,07,00,42,45.10
2016,10,07,00,43,49.90
2016,10,07,00,44,49.90
2016,10,07,00,45,35.40
2016,10,07,00,46,37.00
2016,10,07,00,47,49.90
2016,10,07,00,48,45.10
2016,10,07,00,49,48.30
2016,10,07,00,50,40.20
2016,10,07,00,51,30.60
2016,10,07,00,52,49.90
2016,10,07,00,53,45.10
2016,10,07,00,54,41.80
2016,10,07,00,55,33.80
2016,10,07,00,56,22.50
2016,10,07,00,57,35.40
2016,10,07,00,58,48.30
2016,10,07,00,59,45.10
2016,10,07,01,00,41.80
2016,10,07,01,01,33.80
2016,10,07,01,02,27.40
2016,10,07,01,03,35.40
2016,10,07,01,04,32.20
2016,10,07,01,05,41.80
2016,10,07,01,06,45.10
2016,10,07,01,07,40.20
2016,10,07,01,08,40.20
2016,10,07,01,09,45.10
2016,10,07,01,10,33.80
2016,10,07,01,11,38.60
2016,10,07,01,12,30.60
2016,10,07,01,13,40.20
2016,10,07,01,14,40.20
2016,10,07,01,15,35.40
2016,10,07,01,16,32.20
2016,10,07,01,17,37.00
2016,10,07,01,18,29.00
2016,10,07,01,19,51.50
2016,10,07,01,20,37.00
2016,10,07,01,21,29.00
2016,10,07,01,22,35.40
2016,10,07,01,23,38.60
2016,10,07,01,24,35.40
2016,10,07,01,25,37.00
2016,10,07,01,26,32.20
2016,10,07,01,27,38.60
2016,10,07,01,28,41.80
2016,10,07,01,29,33.80
2016,10,07,01,30,32.20
2016,10,07,01,31,38.60
2016,10,07,01,32,37.00
2016,10,07,01,33,43.50
2016,10,07,01,34,49.90
2016,10,07,01,35,40.20
2016,10,07,01,36,37.00
2016,10,07,01,37,38.60
2016,10,07,01,38,38.60
2016,10,07,01,39,45.10
2016,10,07,01,40,45.10
2016,10,07,01,41,30.60
2016,10,07,01,42,38.60
2016,10,07,01,43,24.20
2016,10,07,01,44,27.40
2016,10,07,01,45,25.70
2016,10,07,01,46,35.40
2016,10,07,01,47,27.40
2016,10,07,01,48,40.20
2016,10,07,01,49,33.80
2016,10,07,01,50,37.00
2016,10,07,01,51,41.80
2016,10,07,01,52,32.20
2016,10,07,01,53,30.60
2016,10,07,01,54,38.60
2016,10,07,01,55,27.40
2016,10,07,01,56,38.60
2016,10,07,01,57,27.40
2016,10,07,01,58,33.80
2016,10,07,01,59,22.50
2016,10,07,02,00,29.00
2016,10,07,02,01,30.60
2016,10,07,02,02,38.60
2016,10,07,02,03,24.20
2016,10,07,02,04,41.80
2016,10,07,02,05,33.80
2016,10,07,02,06,29.00
2016,10,07,02,07,33.80
2016,10,07,02,08,32.20
2016,10,07,02,09,32.20
2016,10,07,02,10,30.60
2016,10,07,02,11,29.00
2016,10,07,02,12,32.20
2016,10,07,02,13,29.00
2016,10,07,02,14,27.40
2016,10,07,02,15,30.60
2016,10,07,02,16,24.20
2016,10,07,02,17,20.90
2016,10,07,02,18,19.30
2016,10,07,02,19,24.20
2016,10,07,02,20,27.40
2016,10,07,02,21,24.20
2016,10,07,02,22,20.90
2016,10,07,02,23,11.30
2016,10,07,02,24,14.50
2016,10,07,02,25,12.90
2016,10,07,02,26,17.70
2016,10,07,02,27,16.10
2016,10,07,02,28,16.10
2016,10,07,02,29,6.40
2016,10,07,02,30,6.40
2016,10,07,02,31,12.90
2016,10,07,02,32,14.50
2016,10,07,02,33,17.70
2016,10,07,02,34,17.70
2016,10,07,02,35,14.50
2016,10,07,02,36,14.50
2016,10,07,02,37,11.30
2016,10,07,02,38,19.30
2016,10,07,02,39,19.30
2016,10,07,02,40,19.30
2016,10,07,02,41,11.30
2016,10,07,02,42,37.00
2016,10,07,02,43,14.50
2016,10,07,02,44,19.30
2016,10,07,02,45,33.80
2016,10,07,02,46,25.70
2016,10,07,02,47,20.90
2016,10,07,02,48,24.20
2016,10,07,02,49,14.50
2016,10,07,02,50,30.60
2016,10,07,02,51,30.60
2016,10,07,02,52,29.00
2016,10,07,02,53,30.60
2016,10,07,02,54,32.20
2016,10,07,02,55,32.20
2016,10,07,02,56,20.90
2016,10,07,02,57,19.30
2016,10,07,02,58,14.50
2016,10,07,02,59,41.80
2016,10,07,03,00,40.20
2016,10,07,03,01,14.50
2016,10,07,03,02,40.20
2016,10,07,03,03,45.10
2016,10,07,03,04,37.00
2016,10,07,03,05,14.50
2016,10,07,03,06,17.70
2016,10,07,03,07,17.70
2016,10,07,03,08,37.00
2016,10,07,03,09,30.60
2016,10,07,03,10,43.50
2016,10,07,03,11,33.80
2016,10,07,03,12,37.00
2016,10,07,03,13,41.80
2016,10,07,03,14,30.60
2016,10,07,03,15,45.10
2016,10,07,03,16,27.40
2016,10,07,03,17,35.40
2016,10,07,03,18,32.20
2016,10,07,03,19,38.60
2016,10,07,03,20,22.50
2016,10,07,03,21,46.70
2016,10,07,03,22,32.20
2016,10,07,03,23,35.40
2016,10,07,03,24,40.20
2016,10,07,03,25,37.00
2016,10,07,03,26,29.00
2016,10,07,03,27,41.80
2016,10,07,03,28,35.40
2016,10,07,03,29,37.00
2016,10,07,03,30,38.60
2016,10,07,03,31,27.40
2016,10,07,03,32,37.00
2016,10,07,03,33,19.30
2016,10,07,03,34,24.20
2016,10,07,03,35,37.00
2016,10,07,03,36,33.80
2016,10,07,03,37,25.70
2016,10,07,03,38,25.70
2016,10,07,03,39,41.80
2016,10,07,03,40,40.20
2016,10,07,03,41,30.60
2016,10,07,03,42,30.60
2016,10,07,03,43,43.50
2016,10,07,03,44,25.70
2016,10,07,03,45,27.40
2016,10,07,03,46,27.40
2016,10,07,03,47,25.70
2016,10,07,03,48,43.50
2016,10,07,03,49,38.60
2016,10,07,03,50,33.80
2016,10,07,03,51,38.60
2016,10,07,03,52,35.40
2016,10,07,03,53,30.60
2016,10,07,03,54,45.10
2016,10,07,03,55,45.10
2016,10,07,03,56,46.70
2016,10,07,03,57,45.10
2016,10,07,03,58,35.40
2016,10,07,03,59,43.50
2016,10,07,04,00,30.60
2016,10,07,04,01,32.20
2016,10,07,04,02,25.70
2016,10,07,04,03,33.80
2016,10,07,04,04,32.20
2016,10,07,04,05,48.30
2016,10,07,04,06,30.60
2016,10,07,04,07,25.70
2016,10,07,04,08,30.60
2016,10,07,04,09,29.00
2016,10,07,04,10,35.40
2016,10,07,04,11,37.00
2016,10,07,04,12,25.70
2016,10,07,04,13,53.10
2016,10,07,04,14,41.80
2016,10,07,04,15,35.40
2016,10,07,04,16,38.60
2016,10,07,04,17,32.20
2016,10,07,04,18,19.30
2016,10,07,04,19,29.00
2016,10,07,04,20,27.40
2016,10,07,04,21,25.70
2016,10,07,04,22,27.40
2016,10,07,04,23,45.10
2016,10,07,04,24,29.00
2016,10,07,04,25,32.20
2016,10,07,04,26,43.50
2016,10,07,04,27,32.20
2016,10,07,04,28,32.20
2016,10,07,04,29,46.70
2016,10,07,04,30,35.40
2016,10,07,04,31,32.20
2016,10,07,04,32,43.50
2016,10,07,04,33,38.60
2016,10,07,04,34,35.40
2016,10,07,04,35,29.00
2016,10,07,04,36,40.20
2016,10,07,04,37,43.50
2016,10,07,04,38,40.20
2016,10,07,04,39,38.60
2016,10,07,04,40,35.40
2016,10,07,04,41,53.10
2016,10,07,04,42,53.10
2016,10,07,04,43,43.50
2016,10,07,04,44,30.60
2016,10,07,04,45,33.80
2016,10,07,04,46,43.50
2016,10,07,04,47,41.80
2016,10,07,04,48,43.50
2016,10,07,04,49,38.60
2016,10,07,04,50,41.80
2016,10,07,04,51,40.20
2016,10,07,04,52,35.40
2016,10,07,04,53,49.90
2016,10,07,04,54,38.60
2016,10,07,04,55,27.40
2016,10,07,04,56,30.60
2016,10,07,04,57,33.80
2016,10,07,04,58,40.20
2016,10,07,04,59,54.70
2016,10,07,05,00,49.90
2016,10,07,05,01,38.60
2016,10,07,05,02,27.40
2016,10,07,05,03,30.60
2016,10,07,05,04,70.80
2016,10,07,05,05,33.80
2016,10,07,05,06,45.10
2016,10,07,05,07,51.50
2016,10,07,05,08,51.50
2016,10,07,05,09,57.90
2016,10,07,05,10,45.10
2016,10,07,05,11,53.10
2016,10,07,05,12,53.10
2016,10,07,05,13,38.60
2016,10,07,05,14,45.10
2016,10,07,05,15,37.00
2016,10,07,05,16,35.40
2016,10,07,05,17,38.60
2016,10,07,05,18,40.20
2016,10,07,05,19,43.50
2016,10,07,05,20,48.30
2016,10,07,05,21,37.00
2016,10,07,05,22,40.20
2016,10,07,05,23,35.40
2016,10,07,05,24,33.80
2016,10,07,05,25,38.60
2016,10,07,05,26,49.90
2016,10,07,05,27,57.90
2016,10,07,05,28,30.60
2016,10,07,05,29,32.20
2016,10,07,05,30,24.20
2016,10,07,05,31,38.60
2016,10,07,05,32,37.00
2016,10,07,05,33,53.10
2016,10,07,05,34,41.80
2016,10,07,05,35,43.50
2016,10,07,05,36,51.50
2016,10,07,05,37,54.70
2016,10,07,05,38,40.20
2016,10,07,05,39,46.70
2016,10,07,05,40,64.40
2016,10,07,05,41,48.30
2016,10,07,05,42,56.30
2016,10,07,05,43,45.10
2016,10,07,05,44,51.50
2016,10,07,05,45,45.10
2016,10,07,05,46,49.90
2016,10,07,05,47,45.10
2016,10,07,05,48,40.20
2016,10,07,05,49,38.60
2016,10,07,05,50,35.40
2016,10,07,05,51,43.50
2016,10,07,05,52,54.70
2016,10,07,05,53,43.50
2016,10,07,05,54,37.00
2016,10,07,05,55,33.80
2016,10,07,05,56,51.50
2016,10,07,05,57,46.70
2016,10,07,05,58,35.40
2016,10,07,05,59,51.50
2016,10,07,06,00,37.00
2016,10,07,06,01,56.30
2016,10,07,06,02,46.70
2016,10,07,06,03,38.60
2016,10,07,06,04,49.90
2016,10,07,06,05,41.80
2016,10,07,06,06,38.60
2016,10,07,06,07,41.80
2016,10,07,06,08,41.80
2016,10,07,06,09,48.30
2016,10,07,06,10,43.50
2016,10,07,06,11,38.60
2016,10,07,06,12,51.50
2016,10,07,06,13,53.10
2016,10,07,06,14,54.70
2016,10,07,06,15,46.70
2016,10,07,06,16,48.30
2016,10,07,06,17,48.30
2016,10,07,06,18,41.80
2016,10,07,06,19,41.80
2016,10,07,06,20,41.80
2016,10,07,06,21,49.90
2016,10,07,06,22,43.50
2016,10,07,06,23,49.90
2016,10,07,06,24,41.80
2016,10,07,06,25,48.30
2016,10,07,06,26,40.20
2016,10,07,06,27,56.30
2016,10,07,06,28,45.10
2016,10,07,06,29,40.20
2016,10,07,06,30,48.30
2016,10,07,06,31,35.40
2016,10,07,06,32,33.80
2016,10,07,06,33,33.80
2016,10,07,06,34,32.20
2016,10,07,06,35,57.90
2016,10,07,06,36,43.50
2016,10,07,06,37,43.50
2016,10,07,06,38,48.30
2016,10,07,06,39,46.70
2016,10,07,06,40,51.50
2016,10,07,06,41,43.50
2016,10,07,06,42,33.80
2016,10,07,06,43,41.80
2016,10,07,06,44,35.40
2016,10,07,06,45,38.60
2016,10,07,06,46,40.20
2016,10,07,06,47,45.10
2016,10,07,06,48,40.20
2016,10,07,06,49,30.60
2016,10,07,06,50,45.10
2016,10,07,06,51,38.60
2016,10,07,06,52,37.00
2016,10,07,06,53,49.90
2016,10,07,06,54,40.20
2016,10,07,06,55,53.10
2016,10,07,06,56,46.70
2016,10,07,06,57,43.50
2016,10,07,06,58,40.20
2016,10,07,06,59,46.70
2016,10,07,07,00,43.50
2016,10,07,07,01,30.60
2016,10,07,07,02,37.00
2016,10,07,07,03,30.60
2016,10,07,07,04,25.70
2016,10,07,07,05,40.20
2016,10,07,07,06,35.40
2016,10,07,07,07,40.20
2016,10,07,07,08,37.00
2016,10,07,07,09,35.40
2016,10,07,07,10,35.40
2016,10,07,07,11,30.60
2016,10,07,07,12,30.60
2016,10,07,07,13,30.60
2016,10,07,07,14,51.50
2016,10,07,07,15,45.10
2016,10,07,07,16,41.80
2016,10,07,07,17,59.50
2016,10,07,07,18,43.50
2016,10,07,07,19,49.90
2016,10,07,07,20,46.70
2016,10,07,07,21,46.70
2016,10,07,07,22,35.40
2016,10,07,07,23,40.20
2016,10,07,07,24,40.20
2016,10,07,07,25,35.40
2016,10,07,07,26,43.50
2016,10,07,07,27,48.30
2016,10,07,07,28,38.60
2016,10,07,07,29,33.80
2016,10,07,07,30,40.20
2016,10,07,07,31,40.20
2016,10,07,07,32,33.80
2016,10,07,07,33,22.50
2016,10,07,07,34,25.70
2016,10,07,07,35,45.10
2016,10,07,07,36,35.40
2016,10,07,07,37,38.60
2016,10,07,07,38,37.00
2016,10,07,07,39,37.00
2016,10,07,07,40,43.50
2016,10,07,07,41,37.00
2016,10,07,07,42,30.60
2016,10,07,07,43,27.40
2016,10,07,07,44,35.40
2016,10,07,07,45,35.40
2016,10,07,07,46,35.40
2016,10,07,07,47,20.90
2016,10,07,07,48,25.70
2016,10,07,07,49,32.20
2016,10,07,07,50,24.20
2016,10,07,07,51,48.30
2016,10,07,07,52,37.00
2016,10,07,07,53,43.50
2016,10,07,07,54,40.20
2016,10,07,07,55,30.60
2016,10,07,07,56,25.70
2016,10,07,07,57,30.60
2016,10,07,07,58,33.80
2016,10,07,07,59,38.60
2016,10,07,08,00,37.00
2016,10,07,08,01,33.80
2016,10,07,08,02,35.40
2016,10,07,08,03,33.80
2016,10,07,08,04,45.10
2016,10,07,08,05,35.40
2016,10,07,08,06,38.60
2016,10,07,08,07,33.80
2016,10,07,08,08,46.70
2016,10,07,08,09,40.20
2016,10,07,08,10,35.40
2016,10,07,08,11,38.60
2016,10,07,08,12,48.30
2016,10,07,08,13,41.80
2016,10,07,08,14,40.20
2016,10,07,08,15,30.60
2016,10,07,08,16,48.30
2016,10,07,08,17,48.30
2016,10,07,08,18,30.60
2016,10,07,08,19,37.00
2016,10,07,08,20,43.50
2016,10,07,08,21,38.60
2016,10,07,08,22,25.70
2016,10,07,08,23,38.60
2016,10,07,08,24,33.80
2016,10,07,08,25,35.40
2016,10,07,08,26,43.50
2016,10,07,08,27,49.90
2016,10,07,08,28,51.50
2016,10,07,08,29,32.20
2016,10,07,08,30,25.70
2016,10,07,08,31,27.40
2016,10,07,08,32,32.20
2016,10,07,08,33,35.40
2016,10,07,08,34,49.90
2016,10,07,08,35,29.00
2016,10,07,08,36,27.40
2016,10,07,08,37,40.20
2016,10,07,08,38,35.40
2016,10,07,08,39,38.60
2016,10,07,08,40,22.50
2016,10,07,08,41,27.40
2016,10,07,08,42,32.20
2016,10,07,08,43,37.00
2016,10,07,08,44,29.00
2016,10,07,08,45,35.40
2016,10,07,08,46,22.50
2016,10,07,08,47,20.90
2016,10,07,08,48,30.60
2016,10,07,08,49,35.40
2016,10,07,08,50,33.80
2016,10,07,08,51,48.30
2016,10,07,08,52,33.80
2016,10,07,08,53,45.10
2016,10,07,08,54,43.50
2016,10,07,08,55,48.30
2016,10,07,08,56,45.10
2016,10,07,08,57,32.20
2016,10,07,08,58,30.60
2016,10,07,08,59,32.20
2016,10,07,09,00,25.70
2016,10,07,09,01,40.20
2016,10,07,09,02,38.60
2016,10,07,09,03,22.50
2016,10,07,09,04,22.50
2016,10,07,09,05,30.60
2016,10,07,09,06,30.60
2016,10,07,09,07,48.30
2016,10,07,09,08,43.50
2016,10,07,09,09,35.40
2016,10,07,09,10,37.00
2016,10,07,09,11,33.80
2016,10,07,09,12,25.70
2016,10,07,09,13,46.70
2016,10,07,09,14,35.40
2016,10,07,09,15,22.50
2016,10,07,09,16,30.60
2016,10,07,09,17,37.00
2016,10,07,09,18,48.30
2016,10,07,09,19,32.20
2016,10,07,09,20,25.70
2016,10,07,09,21,32.20
2016,10,07,09,22,40.20
2016,10,07,09,23,37.00
2016,10,07,09,24,25.70
2016,10,07,09,25,29.00
2016,10,07,09,26,37.00
2016,10,07,09,27,33.80
2016,10,07,09,28,20.90
2016,10,07,09,29,32.20
2016,10,07,09,30,30.60
2016,10,07,09,31,27.40
2016,10,07,09,32,32.20
2016,10,07,09,33,29.00
2016,10,07,09,34,33.80
2016,10,07,09,35,29.00
2016,10,07,09,36,37.00
2016,10,07,09,37,29.00
2016,10,07,09,38,48.30
2016,10,07,09,39,33.80
2016,10,07,09,40,25.70
2016,10,07,09,41,27.40
2016,10,07,09,42,38.60
2016,10,07,09,43,45.10
2016,10,07,09,44,35.40
2016,10,07,09,45,48.30
2016,10,07,09,46,46.70
2016,10,07,09,47,32.20
2016,10,07,09,48,37.00
2016,10,07,09,49,24.20
2016,10,07,09,50,45.10
2016,10,07,09,51,37.00
2016,10,07,09,52,35.40
2016,10,07,09,53,24.20
2016,10,07,09,54,27.40
2016,10,07,09,55,35.40
2016,10,07,09,56,38.60
2016,10,07,09,57,27.40
2016,10,07,09,58,32.20
2016,10,07,09,59,38.60
2016,10,07,10,00,27.40
2016,10,07,10,01,29.00
2016,10,07,10,02,35.40
2016,10,07,10,03,32.20
2016,10,07,10,04,27.40
2016,10,07,10,05,30.60
2016,10,07,10,06,27.40
2016,10,07,10,07,27.40
2016,10,07,10,08,33.80
2016,10,07,10,09,24.20
2016,10,07,10,10,29.00
2016,10,07,10,11,32.20
2016,10,07,10,12,29.00
2016,10,07,10,13,30.60
2016,10,07,10,14,25.70
2016,10,07,10,15,30.60
2016,10,07,10,16,51.50
2016,10,07,10,17,45.10
2016,10,07,10,18,29.00
2016,10,07,10,19,22.50
2016,10,07,10,20,27.40
2016,10,07,10,21,24.20
2016,10,07,10,22,35.40
2016,10,07,10,23,33.80
2016,10,07,10,24,17.70
2016,10,07,10,25,32.20
2016,10,07,10,26,24.20
2016,10,07,10,27,19.30
2016,10,07,10,28,20.90
2016,10,07,10,29,38.60
2016,10,07,10,30,35.40
2016,10,07,10,31,24.20
2016,10,07,10,32,27.40
2016,10,07,10,33,33.80
2016,10,07,10,34,20.90
2016,10,07,10,35,25.70
2016,10,07,10,36,17.70
2016,10,07,10,37,35.40
2016,10,07,10,38,30.60
2016,10,07,10,39,24.20
2016,10,07,10,40,45.10
2016,10,07,10,41,27.40
2016,10,07,10,42,43.50
2016,10,07,10,43,37.00
2016,10,07,10,44,37.00
2016,10,07,10,45,33.80
2016,10,07,10,46,46.70
2016,10,07,10,47,29.00
2016,10,07,10,48,35.40
2016,10,07,10,49,25.70
2016,10,07,10,50,40.20
2016,10,07,10,51,27.40
2016,10,07,10,52,22.50
2016,10,07,10,53,27.40
2016,10,07,10,54,25.70
2016,10,07,10,55,22.50
2016,10,07,10,56,9.60
2016,10,07,10,57,20.90
2016,10,07,10,58,27.40
2016,10,07,10,59,32.20
2016,10,07,11,00,25.70
2016,10,07,11,01,38.60
2016,10,07,11,02,29.00
2016,10,07,11,03,32.20
2016,10,07,11,04,33.80
2016,10,07,11,05,38.60
2016,10,07,11,06,29.00
2016,10,07,11,07,24.20
2016,10,07,11,08,19.30
2016,10,07,11,09,22.50
2016,10,07,11,10,29.00
2016,10,07,11,11,33.80
2016,10,07,11,12,25.70
2016,10,07,11,13,16.10
2016,10,07,11,14,17.70
2016,10,07,11,15,20.90
2016,10,07,11,16,22.50
2016,10,07,11,17,38.60
2016,10,07,11,18,24.20
2016,10,07,11,19,20.90
2016,10,07,11,20,11.30
2016,10,07,11,21,19.30
2016,10,07,11,22,11.30
2016,10,07,11,23,19.30
2016,10,07,11,24,29.00
2016,10,07,11,25,20.90
2016,10,07,11,26,19.30
2016,10,07,11,27,19.30
2016,10,07,11,28,22.50
2016,10,07,11,29,20.90
2016,10,07,11,30,20.90
2016,10,07,11,31,25.70
2016,10,07,11,32,27.40
2016,10,07,11,33,32.20
2016,10,07,11,34,17.70
2016,10,07,11,35,32.20
2016,10,07,11,36,29.00
2016,10,07,11,37,19.30
2016,10,07,11,38,16.10
2016,10,07,11,39,24.20
2016,10,07,11,40,29.00
2016,10,07,11,41,22.50
2016,10,07,11,42,19.30
2016,10,07,11,43,17.70
2016,10,07,11,44,27.40
2016,10,07,11,45,19.30
2016,10,07,11,46,16.10
2016,10,07,11,47,33.80
2016,10,07,11,48,14.50
2016,10,07,11,49,20.90
2016,10,07,11,50,27.40
2016,10,07,11,51,20.90
2016,10,07,11,52,17.70
2016,10,07,11,53,22.50
2016,10,07,11,54,24.20
2016,10,07,11,55,30.60
2016,10,07,11,56,27.40
2016,10,07,11,57,30.60
2016,10,07,11,58,11.30
2016,10,07,11,59,19.30
2016,10,07,12,00,22.50
2016,10,07,12,01,20.90
2016,10,07,12,02,19.30
2016,10,07,12,03,25.70
2016,10,07,12,04,24.20
2016,10,07,12,05,25.70
2016,10,07,12,06,30.60
2016,10,07,12,07,29.00
2016,10,07,12,08,24.20
2016,10,07,12,09,22.50
2016,10,07,12,10,24.20
2016,10,07,12,11,11.30
2016,10,07,12,12,22.50
2016,10,07,12,13,17.70
2016,10,07,12,14,24.20
2016,10,07,12,15,22.50
2016,10,07,12,16,29.00
2016,10,07,12,17,22.50
2016,10,07,12,18,25.70
2016,10,07,12,19,16.10
2016,10,07,12,20,20.90
2016,10,07,12,21,17.70
2016,10,07,12,22,17.70
2016,10,07,12,23,22.50
2016,10,07,12,24,12.90
2016,10,07,12,25,27.40
2016,10,07,12,26,30.60
2016,10,07,12,27,22.50
2016,10,07,12,28,24.20
2016,10,07,12,29,35.40
2016,10,07,12,30,30.60
2016,10,07,12,31,25.70
2016,10,07,12,32,24.20
2016,10,07,12,33,25.70
2016,10,07,12,34,22.50
2016,10,07,12,35,16.10
2016,10,07,12,36,16.10
2016,10,07,12,37,29.00
2016,10,07,12,38,22.50
2016,10,07,12,39,19.30
2016,10,07,12,40,24.20
2016,10,07,12,41,22.50
2016,10,07,12,42,25.70
2016,10,07,12,43,16.10
2016,10,07,12,44,20.90
2016,10,07,12,45,20.90
2016,10,07,12,46,19.30
2016,10,07,12,47,24.20
2016,10,07,12,48,20.90
2016,10,07,12,49,24.20
2016,10,07,12,50,22.50
2016,10,07,12,51,25.70
2016,10,07,12,52,20.90
2016,10,07,12,53,20.90
2016,10,07,12,54,24.20
2016,10,07,12,55,25.70
2016,10,07,12,56,27.40
2016,10,07,12,57,24.20
2016,10,07,12,58,19.30
2016,10,07,12,59,20.90
2016,10,07,13,00,19.30
2016,10,07,13,01,24.20
2016,10,07,13,02,19.30
2016,10,07,13,03,25.70
2016,10,07,13,04,20.90
2016,10,07,13,05,27.40
2016,10,07,13,06,25.70
2016,10,07,13,07,24.20
2016,10,07,13,08,19.30
2016,10,07,13,09,14.50
2016,10,07,13,10,17.70
2016,10,07,13,11,30.60
2016,10,07,13,12,22.50
2016,10,07,13,13,19.30
2016,10,07,13,14,20.90
2016,10,07,13,15,14.50
2016,10,07,13,16,17.70
2016,10,07,13,17,25.70
2016,10,07,13,18,22.50
2016,10,07,13,19,30.60
2016,10,07,13,20,27.40
2016,10,07,13,21,33.80
2016,10,07,13,22,30.60
2016,10,07,13,23,35.40
2016,10,07,13,24,22.50
2016,10,07,13,25,22.50
2016,10,07,13,26,30.60
2016,10,07,13,27,19.30
2016,10,07,13,28,20.90
2016,10,07,13,29,16.10
2016,10,07,13,30,27.40
2016,10,07,13,31,25.70
2016,10,07,13,32,32.20
2016,10,07,13,33,33.80
2016,10,07,13,34,20.90
2016,10,07,13,35,24.20
2016,10,07,13,36,29.00
2016,10,07,13,37,29.00
2016,10,07,13,38,22.50
2016,10,07,13,39,24.20
2016,10,07,13,40,22.50
2016,10,07,13,41,17.70
2016,10,07,13,42,22.50
2016,10,07,13,43,20.90
2016,10,07,13,44,17.70
2016,10,07,13,45,22.50
2016,10,07,13,46,22.50
2016,10,07,13,47,27.40
2016,10,07,13,48,32.20
2016,10,07,13,49,19.30
2016,10,07,13,50,22.50
2016,10,07,13,51,24.20
2016,10,07,13,52,25.70
2016,10,07,13,53,33.80
2016,10,07,13,54,24.20
2016,10,07,13,55,27.40
2016,10,07,13,56,29.00
2016,10,07,13,57,17.70
2016,10,07,13,58,11.30
2016,10,07,13,59,19.30
2016,10,07,14,00,17.70
2016,10,07,14,01,16.10
2016,10,07,14,02,17.70
2016,10,07,14,03,30.60
2016,10,07,14,04,20.90
2016,10,07,14,05,9.60
2016,10,07,14,06,20.90
2016,10,07,14,07,27.40
2016,10,07,14,08,19.30
2016,10,07,14,09,20.90
2016,10,07,14,10,25.70
2016,10,07,14,11,27.40
2016,10,07,14,12,17.70
2016,10,07,14,13,35.40
2016,10,07,14,14,30.60
2016,10,07,14,15,25.70
2016,10,07,14,16,35.40
2016,10,07,14,17,35.40
2016,10,07,14,18,37.00
2016,10,07,14,19,29.00
2016,10,07,14,20,30.60
2016,10,07,14,21,37.00
2016,10,07,14,22,20.90
2016,10,07,14,23,32.20
2016,10,07,14,24,22.50
2016,10,07,14,25,22.50
2016,10,07,14,26,30.60
2016,10,07,14,27,22.50
2016,10,07,14,28,27.40
2016,10,07,14,29,30.60
2016,10,07,14,30,20.90
2016,10,07,14,31,24.20
2016,10,07,14,32,20.90
2016,10,07,14,33,17.70
2016,10,07,14,34,25.70
2016,10,07,14,35,27.40
2016,10,07,14,36,24.20
2016,10,07,14,37,27.40
2016,10,07,14,38,24.20
2016,10,07,14,39,20.90
2016,10,07,14,40,25.70
2016,10,07,14,41,25.70
2016,10,07,14,42,27.40
2016,10,07,14,43,32.20
2016,10,07,14,44,33.80
2016,10,07,14,45,25.70
2016,10,07,14,46,22.50
2016,10,07,14,47,24.20
2016,10,07,14,48,25.70
2016,10,07,14,49,25.70
2016,10,07,14,50,20.90
2016,10,07,14,51,29.00
2016,10,07,14,52,32.20
2016,10,07,14,53,24.20
2016,10,07,14,54,30.60
2016,10,07,14,55,24.20
2016,10,07,14,56,20.90
2016,10,07,14,57,25.70
2016,10,07,14,58,24.20
2016,10,07,14,59,22.50
2016,10,07,15,00,20.90
2016,10,07,15,01,19.30
2016,10,07,15,02,19.30
2016,10,07,15,03,19.30
2016,10,07,15,04,22.50
2016,10,07,15,05,16.10
2016,10,07,15,06,27.40
2016,10,07,15,07,20.90
2016,10,07,15,08,16.10
2016,10,07,15,09,14.50
2016,10,07,15,10,24.20
2016,10,07,15,11,16.10
2016,10,07,15,12,9.60
2016,10,07,15,13,16.10
2016,10,07,15,14,17.70
2016,10,07,15,15,17.70
2016,10,07,15,16,22.50
2016,10,07,15,17,9.60
2016,10,07,15,18,16.10
2016,10,07,15,19,17.70
2016,10,07,15,20,17.70
2016,10,07,15,21,16.10
2016,10,07,15,22,16.10
2016,10,07,15,23,16.10
2016,10,07,15,24,19.30
2016,10,07,15,25,22.50
2016,10,07,15,26,19.30
2016,10,07,15,27,9.60
2016,10,07,15,28,25.70
2016,10,07,15,29,24.20
2016,10,07,15,30,14.50
2016,10,07,15,31,11.30
2016,10,07,15,32,16.10
2016,10,07,15,33,14.50
2016,10,07,15,34,11.30
2016,10,07,15,35,11.30
2016,10,07,15,36,20.90
2016,10,07,15,37,11.30
2016,10,07,15,38,14.50
2016,10,07,15,39,6.40
2016,10,07,15,40,30.60
2016,10,07,15,41,17.70
2016,10,07,15,42,11.30
2016,10,07,15,43,9.60
2016,10,07,15,44,12.90
2016,10,07,15,45,11.30
2016,10,07,15,46,22.50
2016,10,07,15,47,19.30
2016,10,07,15,48,16.10
2016,10,07,15,49,20.90
2016,10,07,15,50,14.50
2016,10,07,15,51,22.50
2016,10,07,15,52,14.50
2016,10,07,15,53,9.60
2016,10,07,15,54,16.10
2016,10,07,15,55,14.50
2016,10,07,15,56,14.50
2016,10,07,15,57,19.30
2016,10,07,15,58,17.70
2016,10,07,15,59,6.40
2016,10,07,16,00,14.50
2016,10,07,16,01,4.80
2016,10,07,16,02,4.80
2016,10,07,16,03,9.60
2016,10,07,16,04,11.30
2016,10,07,16,05,9.60
2016,10,07,16,06,14.50
2016,10,07,16,07,27.40
2016,10,07,16,08,24.20
2016,10,07,16,09,24.20
2016,10,07,16,10,6.40
2016,10,07,16,11,20.90
2016,10,07,16,12,14.50
2016,10,07,16,13,11.30
2016,10,07,16,14,11.30
2016,10,07,16,15,8.10
2016,10,07,16,16,16.10
2016,10,07,16,17,11.30
2016,10,07,16,18,9.60
2016,10,07,16,19,4.80
2016,10,07,16,20,16.10
2016,10,07,16,21,14.50
2016,10,07,16,22,8.10
2016,10,07,16,23,6.40
2016,10,07,16,24,16.10
2016,10,07,16,25,16.10
2016,10,07,16,26,11.30
2016,10,07,16,27,9.60
2016,10,07,16,28,9.60
2016,10,07,16,29,12.90
2016,10,07,16,30,19.30
2016,10,07,16,31,16.10
2016,10,07,16,32,11.30
2016,10,07,16,33,19.30
2016,10,07,16,34,16.10
2016,10,07,16,35,14.50
2016,10,07,16,36,8.10
2016,10,07,16,37,16.10
2016,10,07,16,38,8.10
2016,10,07,16,39,14.50
2016,10,07,16,40,11.30
2016,10,07,16,41,17.70
2016,10,07,16,42,6.40
2016,10,07,16,43,8.10
2016,10,07,16,44,14.50
2016,10,07,16,45,19.30
2016,10,07,16,46,20.90
2016,10,07,16,47,16.10
2016,10,07,16,48,16.10
2016,10,07,16,49,14.50
2016,10,07,16,50,11.30
2016,10,07,16,51,6.40
2016,10,07,16,52,8.10
2016,10,07,16,53,11.30
2016,10,07,16,54,6.40
2016,10,07,16,55,6.40
2016,10,07,16,56,9.60
2016,10,07,16,57,16.10
2016,10,07,16,58,9.60
2016,10,07,16,59,8.10
2016,10,07,17,00,8.10
2016,10,07,17,01,9.60
2016,10,07,17,02,8.10
2016,10,07,17,03,9.60
2016,10,07,17,04,8.10
2016,10,07,17,05,19.30
2016,10,07,17,06,16.10
2016,10,07,17,07,16.10
2016,10,07,17,08,14.50
2016,10,07,17,09,16.10
2016,10,07,17,10,12.90
2016,10,07,17,11,9.60
2016,10,07,17,12,16.10
2016,10,07,17,13,9.60
2016,10,07,17,14,11.30
2016,10,07,17,15,14.50
2016,10,07,17,16,16.10
2016,10,07,17,17,8.10
2016,10,07,17,18,4.80
2016,10,07,17,19,11.30
2016,10,07,17,20,8.10
2016,10,07,17,21,9.60